"Sample Date","Sample Time","Sample Value","Units","Flow Rate","Sample Interval","Number Channels","Micron Size 0","Counts/Channel 0","Micron Size 1","Counts/Channel 1","Micron Size 2","Counts/Channel 2","Micron Size 3","Counts/Channel 3","Micron Size 4","Counts/Channel 4","Micron Size 5","Counts/Channel 5","Micron Size 6","Counts/Channel 6","Micron Size 7","Counts/Channel 7","Micron Size 8","Counts/Channel 8","Micron Size 9","Counts/Channel 9","Micron Size 10","Counts/Channel 10","Micron Size 11","Counts/Channel 11","Micron Size 12","Counts/Channel 12","Micron Size 13","Counts/Channel 13","Micron Size 14","Counts/Channel 14","Micron Size 15","Counts/Channel 15","Micron Size 16","Counts/Channel 16","Micron Size 17","Counts/Channel 17","Micron Size 18","Counts/Channel 18","Micron Size 19","Counts/Channel 19","Micron Size 20","Counts/Channel 20","Micron Size 21","Counts/Channel 21","Micron Size 22","Counts/Channel 22","Micron Size 23","Counts/Channel 23","Micron Size 24","Counts/Channel 24","Micron Size 25","Counts/Channel 25","Micron Size 26","Counts/Channel 26","Micron Size 27","Counts/Channel 27","Micron Size 28","Counts/Channel 28","Micron Size 29","Counts/Channel 29","Micron Size 30","Counts/Channel 30","Micron Size 31","Counts/Channel 31"
"03/10/08","23:00:05",378529.000,"cc",28290.092,6.00,6,0.100,244612.000,0.200,122235.000,0.300,8712.000,0.500,2264.000,1.000,706.000,5.000,0
"03/10/08","23:00:11",440600.000,"cc",28348.109,6.00,6,0.100,287175.000,0.200,139518.000,0.300,10864.000,0.500,2392.000,1.000,651.000,5.000,0
"03/10/08","23:00:17",304880.000,"cc",28315.508,6.00,6,0.100,158652.000,0.200,131904.000,0.300,10943.000,0.500,2596.000,1.000,785.000,5.000,0
"03/10/08","23:00:23",402927.000,"cc",28310.600,6.00,6,0.100,252539.000,0.200,134938.000,0.300,12072.000,0.500,2628.000,1.000,750.000,5.000,0
"03/10/08","23:00:29",369852.000,"cc",28308.324,6.00,6,0.100,222616.000,0.200,133182.000,0.300,10658.000,0.500,2620.000,1.000,776.000,5.000,0
"03/10/08","23:00:35",428962.000,"cc",28347.465,6.00,6,0.100,277728.000,0.200,137033.000,0.300,10957.000,0.500,2469.000,1.000,775.000,5.000,0
"03/10/08","23:00:41",224215.000,"cc",28307.684,6.00,6,0.100,112312.000,0.200,99793.000,0.300,8648.000,0.500,2687.000,1.000,775.000,5.000,0
"03/10/08","23:00:47",414493.000,"cc",28270.367,6.00,6,0.100,272639.000,0.200,127528.000,0.300,11118.000,0.500,2494.000,1.000,714.000,5.000,0
"03/10/08","23:00:53",307708.000,"cc",28318.443,6.00,6,0.100,198150.000,0.200,99201.000,0.300,7178.000,0.500,2402.000,1.000,777.000,5.000,0
"03/10/08","23:00:59",318470.000,"cc",28349.440,6.00,6,0.100,194190.000,0.200,112857.000,0.300,8193.000,0.500,2442.000,1.000,788.000,5.000,0
"03/10/08","23:01:05",231055.000,"cc",28345.303,6.00,6,0.100,142002.000,0.200,80184.000,0.300,5668.000,0.500,2437.000,1.000,764.000,5.000,0
"03/10/08","23:01:11",232673.000,"cc",28286.004,6.00,6,0.100,142850.000,0.200,80893.000,0.300,5750.000,0.500,2351.000,1.000,829.000,5.000,0
"03/10/08","23:01:17",192514.000,"cc",28352.772,6.00,6,0.100,92781.000,0.200,90307.000,0.300,6148.000,0.500,2454.000,1.000,823.000,5.000,1.000
"03/10/08","23:01:23",225375.000,"cc",28298.682,6.00,6,0.100,141009.000,0.200,75861.000,0.300,5265.000,0.500,2451.000,1.000,789.000,5.000,0
"03/10/08","23:01:29",207248.000,"cc",28324.137,6.00,6,0.100,97200.000,0.200,100066.000,0.300,6889.000,0.500,2350.000,1.000,743.000,5.000,0
"03/10/08","23:01:35",197519.000,"cc",28285.387,6.00,6,0.100,88508.000,0.200,98831.000,0.300,6976.000,0.500,2454.000,1.000,750.000,5.000,0
"03/10/08","23:01:41",258979.000,"cc",28370.941,6.00,6,0.100,150857.000,0.200,97823.000,0.300,7183.000,0.500,2323.000,1.000,793.000,5.000,0
"03/10/08","23:01:47",322193.000,"cc",28379.977,6.00,6,0.100,263978.000,0.200,50936.000,0.300,4189.000,0.500,2351.000,1.000,739.000,5.000,0
"03/10/08","23:01:53",338457.000,"cc",28236.443,6.00,6,0.100,274826.000,0.200,55895.000,0.300,4680.000,0.500,2330.000,1.000,726.000,5.000,0
"03/10/08","23:01:59",335384.000,"cc",28343.248,6.00,6,0.100,289513.000,0.200,39289.000,0.300,3621.000,0.500,2225.000,1.000,736.000,5.000,0
"03/10/08","23:02:05",369334.000,"cc",28267.848,6.00,6,0.100,317495.000,0.200,45060.000,0.300,3867.000,0.500,2202.000,1.000,710.000,5.000,0
"03/10/08","23:02:11",350079.000,"cc",28332.568,6.00,6,0.100,286054.000,0.200,56609.000,0.300,4527.000,0.500,2181.000,1.000,708.000,5.000,0
"03/10/08","23:02:17",272702.000,"cc",28296.654,6.00,6,0.100,192655.000,0.200,71534.000,0.300,5522.000,0.500,2269.000,1.000,722.000,5.000,0
"03/10/08","23:02:23",162664.000,"cc",28245.176,6.00,6,0.100,71209.000,0.200,82192.000,0.300,6097.000,0.500,2431.000,1.000,735.000,5.000,0
"03/10/08","23:02:29",293678.000,"cc",28324.648,6.00,6,0.100,185937.000,0.200,97248.000,0.300,7406.000,0.500,2316.000,1.000,771.000,5.000,0
"03/10/08","23:02:35",305547.000,"cc",28338.549,6.00,6,0.100,233526.000,0.200,63645.000,0.300,5072.000,0.500,2468.000,1.000,836.000,5.000,0
"03/10/08","23:02:41",172489.000,"cc",28345.772,6.00,6,0.100,71866.000,0.200,90613.000,0.300,6865.000,0.500,2408.000,1.000,737.000,5.000,0
"03/10/08","23:02:47",239788.000,"cc",28318.787,6.00,6,0.100,144819.000,0.200,85624.000,0.300,6374.000,0.500,2268.000,1.000,703.000,5.000,0
"03/10/08","23:02:53",168740.000,"cc",28283.490,6.00,6,0.100,73591.000,0.200,85496.000,0.300,6375.000,0.500,2433.000,1.000,845.000,5.000,0
"03/10/08","23:02:59",191552.000,"cc",28344.600,6.00,6,0.100,86270.000,0.200,95119.000,0.300,6925.000,0.500,2428.000,1.000,810.000,5.000,0
"03/10/08","23:03:05",356635.000,"cc",28303.941,6.00,6,0.100,291466.000,0.200,57483.000,0.300,4549.000,0.500,2378.000,1.000,759.000,5.000,0
"03/10/08","23:03:11",355172.000,"cc",28335.811,6.00,6,0.100,232655.000,0.200,110440.000,0.300,8691.000,0.500,2610.000,1.000,776.000,5.000,0
"03/10/08","23:03:17",196632.000,"cc",28248.004,6.00,6,0.100,82021.000,0.200,104052.000,0.300,7529.000,0.500,2305.000,1.000,725.000,5.000,0
"03/10/08","23:03:23",359871.000,"cc",28361.572,6.00,6,0.100,258155.000,0.200,91608.000,0.300,6879.000,0.500,2429.000,1.000,800.000,5.000,0
"03/10/08","23:03:29",354737.000,"cc",28328.084,6.00,6,0.100,221682.000,0.200,119572.000,0.300,10221.000,0.500,2537.000,1.000,725.000,5.000,0
"03/10/08","23:03:35",391882.000,"cc",28383.428,6.00,6,0.100,252863.000,0.200,125623.000,0.300,9998.000,0.500,2619.000,1.000,779.000,5.000,0
"03/10/08","23:03:41",368730.000,"cc",28334.061,6.00,6,0.100,206518.000,0.200,139492.000,0.300,19262.000,0.500,2734.000,1.000,724.000,5.000,0
"03/10/08","23:03:47",450308.000,"cc",28260.133,6.00,6,0.100,283727.000,0.200,149994.000,0.300,13242.000,0.500,2569.000,1.000,776.000,5.000,0
"03/10/08","23:03:53",438011.000,"cc",28300.232,6.00,6,0.100,287935.000,0.200,133201.000,0.300,13235.000,0.500,2789.000,1.000,851.000,5.000,0
"03/10/08","23:03:59",397721.000,"cc",28316.063,6.00,6,0.100,264037.000,0.200,121094.000,0.300,8912.000,0.500,2783.000,1.000,895.000,5.000,0
"03/10/08","23:04:05",196358.000,"cc",28375.475,6.00,6,0.100,81409.000,0.200,103645.000,0.300,7730.000,0.500,2713.000,1.000,861.000,5.000,0
"03/10/08","23:04:11",283841.000,"cc",28311.303,6.00,6,0.100,199342.000,0.200,75108.000,0.300,5736.000,0.500,2789.000,1.000,866.000,5.000,0
"03/10/08","23:04:17",338038.000,"cc",28233.363,6.00,6,0.100,246359.000,0.200,81872.000,0.300,6146.000,0.500,2739.000,1.000,922.000,5.000,0
"03/10/08","23:04:23",303039.000,"cc",28200.211,6.00,6,0.100,193073.000,0.200,99172.000,0.300,7188.000,0.500,2720.000,1.000,886.000,5.000,0
"03/10/08","23:04:29",300869.000,"cc",28368.525,6.00,6,0.100,231680.000,0.200,60944.000,0.300,4783.000,0.500,2612.000,1.000,850.000,5.000,0
"03/10/08","23:04:35",374719.000,"cc",28346.803,6.00,6,0.100,303520.000,0.200,62807.000,0.300,4996.000,0.500,2548.000,1.000,848.000,5.000,0
"03/10/08","23:04:41",386919.000,"cc",28302.711,6.00,6,0.100,225548.000,0.200,136991.000,0.300,20566.000,0.500,3027.000,1.000,787.000,5.000,0
"03/10/08","23:04:47",445382.000,"cc",28332.713,6.00,6,0.100,277085.000,0.200,148589.000,0.300,16013.000,0.500,2906.000,1.000,789.000,5.000,0
"03/10/08","23:04:53",433948.000,"cc",28336.785,6.00,6,0.100,285795.000,0.200,133472.000,0.300,11259.000,0.500,2660.000,1.000,762.000,5.000,0
"03/10/08","23:04:59",295756.000,"cc",28248.963,6.00,6,0.100,199452.000,0.200,86380.000,0.300,6701.000,0.500,2464.000,1.000,759.000,5.000,0
"03/10/08","23:05:05",204291.000,"cc",28306.002,6.00,6,0.100,81012.000,0.200,111730.000,0.300,8491.000,0.500,2328.000,1.000,730.000,5.000,0
"03/10/08","23:05:11",187410.000,"cc",28273.033,6.00,6,0.100,74924.000,0.200,101744.000,0.300,7720.000,0.500,2315.000,1.000,707.000,5.000,0
"03/10/08","23:05:17",172132.000,"cc",28327.750,6.00,6,0.100,74944.000,0.200,87574.000,0.300,6484.000,0.500,2404.000,1.000,726.000,5.000,0
"03/10/08","23:05:23",300130.000,"cc",28313.217,6.00,6,0.100,207148.000,0.200,83686.000,0.300,6111.000,0.500,2399.000,1.000,786.000,5.000,0
"03/10/08","23:05:29",194223.000,"cc",28345.035,6.00,6,0.100,85914.000,0.200,98123.000,0.300,7002.000,0.500,2436.000,1.000,748.000,5.000,0
"03/10/08","23:05:35",324685.000,"cc",28324.193,6.00,6,0.100,205281.000,0.200,108301.000,0.300,8061.000,0.500,2314.000,1.000,728.000,5.000,0
"03/10/08","23:05:41",222039.000,"cc",28329.625,6.00,6,0.100,135273.000,0.200,77602.000,0.300,5855.000,0.500,2485.000,1.000,824.000,5.000,0
"03/10/08","23:05:47",298186.000,"cc",28341.658,6.00,6,0.100,206909.000,0.200,80866.000,0.300,6857.000,0.500,2703.000,1.000,851.000,5.000,0
"03/10/08","23:05:53",363069.000,"cc",28266.982,6.00,6,0.100,292333.000,0.200,61613.000,0.300,5638.000,0.500,2651.000,1.000,834.000,5.000,0
"03/10/08","23:05:59",180287.000,"cc",28349.752,6.00,6,0.100,84637.000,0.200,85465.000,0.300,6820.000,0.500,2550.000,1.000,815.000,5.000,0
"03/10/08","23:06:05",376294.000,"cc",28314.881,6.00,6,0.100,318458.000,0.200,49856.000,0.300,4668.000,0.500,2555.000,1.000,757.000,5.000,0
"03/10/08","23:06:11",345379.000,"cc",28375.668,6.00,6,0.100,282795.000,0.200,54416.000,0.300,4797.000,0.500,2556.000,1.000,815.000,5.000,0
"03/10/08","23:06:17",259841.000,"cc",28323.170,6.00,6,0.100,142942.000,0.200,105308.000,0.300,8249.000,0.500,2594.000,1.000,748.000,5.000,0
"03/10/08","23:06:23",188570.000,"cc",28269.244,6.00,6,0.100,83153.000,0.200,94276.000,0.300,7591.000,0.500,2721.000,1.000,829.000,5.000,0
"03/10/08","23:06:29",205809.000,"cc",28329.648,6.00,6,0.100,93894.000,0.200,101131.000,0.300,7460.000,0.500,2518.000,1.000,806.000,5.000,0
"03/10/08","23:06:35",347160.000,"cc",28260.576,6.00,6,0.100,252319.000,0.200,85011.000,0.300,6506.000,0.500,2557.000,1.000,767.000,5.000,0
"03/10/08","23:06:41",273848.000,"cc",28338.023,6.00,6,0.100,198090.000,0.200,68022.000,0.300,4836.000,0.500,2201.000,1.000,698.000,5.000,1.000
"03/10/08","23:06:47",289275.000,"cc",28308.574,6.00,6,0.100,220084.000,0.200,61735.000,0.300,4675.000,0.500,2124.000,1.000,657.000,5.000,0
"03/10/08","23:06:53",438343.000,"cc",28312.986,6.00,6,0.100,277399.000,0.200,146720.000,0.300,11304.000,0.500,2262.000,1.000,658.000,5.000,0
"03/10/08","23:06:59",305785.000,"cc",28351.191,6.00,6,0.100,168968.000,0.200,123909.000,0.300,9784.000,0.500,2437.000,1.000,687.000,5.000,0
"03/10/08","23:07:05",389626.000,"cc",28307.086,6.00,6,0.100,220515.000,0.200,151506.000,0.300,14106.000,0.500,2718.000,1.000,781.000,5.000,0
"03/10/08","23:07:11",189465.000,"cc",28233.877,6.00,6,0.100,71001.000,0.200,107966.000,0.300,7479.000,0.500,2299.000,1.000,720.000,5.000,0
"03/10/08","23:07:17",188637.000,"cc",28279.643,6.00,6,0.100,85204.000,0.200,93733.000,0.300,6624.000,0.500,2360.000,1.000,716.000,5.000,0
"03/10/08","23:07:23",483369.000,"cc",28300.775,6.00,6,0.100,318713.000,0.200,148266.000,0.300,12928.000,0.500,2661.000,1.000,801.000,5.000,0
"03/10/08","23:07:29",438620.000,"cc",28309.264,6.00,6,0.100,290134.000,0.200,134095.000,0.300,10965.000,0.500,2632.000,1.000,794.000,5.000,0
"03/10/08","23:07:35",359441.000,"cc",28374.264,6.00,6,0.100,224110.000,0.200,120764.000,0.300,11106.000,0.500,2647.000,1.000,814.000,5.000,0
"03/10/08","23:07:41",183437.000,"cc",28299.008,6.00,6,0.100,76955.000,0.200,95762.000,0.300,7158.000,0.500,2713.000,1.000,849.000,5.000,0
"03/10/08","23:07:47",220504.000,"cc",28353.680,6.00,6,0.100,134165.000,0.200,76773.000,0.300,6005.000,0.500,2688.000,1.000,873.000,5.000,0
"03/10/08","23:07:53",353182.000,"cc",28326.348,6.00,6,0.100,265977.000,0.200,77872.000,0.300,5914.000,0.500,2604.000,1.000,815.000,5.000,0
"03/10/08","23:07:59",256942.000,"cc",28288.270,6.00,6,0.100,141549.000,0.200,104166.000,0.300,7651.000,0.500,2713.000,1.000,863.000,5.000,0
"03/10/08","23:08:05",159341.000,"cc",28312.000,6.00,6,0.100,71004.000,0.200,78773.000,0.300,6054.000,0.500,2663.000,1.000,847.000,5.000,0
"03/10/08","23:08:11",203319.000,"cc",28320.682,6.00,6,0.100,80163.000,0.200,111399.000,0.300,8243.000,0.500,2664.000,1.000,850.000,5.000,0
"03/10/08","23:08:17",249905.000,"cc",28274.066,6.00,6,0.100,147689.000,0.200,92020.000,0.300,6797.000,0.500,2565.000,1.000,834.000,5.000,0
"03/10/08","23:08:23",317754.000,"cc",28333.506,6.00,6,0.100,242508.000,0.200,66436.000,0.300,5318.000,0.500,2695.000,1.000,797.000,5.000,0
"03/10/08","23:08:29",290908.000,"cc",28285.219,6.00,6,0.100,222087.000,0.200,60065.000,0.300,5400.000,0.500,2528.000,1.000,828.000,5.000,0
"03/10/08","23:08:35",377512.000,"cc",28381.373,6.00,6,0.100,317523.000,0.200,51659.000,0.300,4921.000,0.500,2598.000,1.000,811.000,5.000,0
"03/10/08","23:08:41",188082.000,"cc",28299.018,6.00,6,0.100,82629.000,0.200,94195.000,0.300,7774.000,0.500,2649.000,1.000,835.000,5.000,0
"03/10/08","23:08:47",328096.000,"cc",28353.572,6.00,6,0.100,171402.000,0.200,131176.000,0.300,21629.000,0.500,3098.000,1.000,791.000,5.000,0
"03/10/08","23:08:53",424488.000,"cc",28291.453,6.00,6,0.100,255405.000,0.200,148414.000,0.300,17152.000,0.500,2737.000,1.000,780.000,5.000,0
"03/10/08","23:08:59",301834.000,"cc",28279.676,6.00,6,0.100,171419.000,0.200,116754.000,0.300,10294.000,0.500,2571.000,1.000,796.000,5.000,0
"03/10/08","23:09:05",238689.000,"cc",28369.412,6.00,6,0.100,142987.000,0.200,85377.000,0.300,6885.000,0.500,2614.000,1.000,826.000,5.000,0
"03/10/08","23:09:11",199453.000,"cc",28330.268,6.00,6,0.100,66041.000,0.200,120273.000,0.300,9826.000,0.500,2512.000,1.000,801.000,5.000,0
"03/10/08","23:09:17",193194.000,"cc",28302.840,6.00,6,0.100,83100.000,0.200,99024.000,0.300,7658.000,0.500,2583.000,1.000,829.000,5.000,0
"03/10/08","23:09:23",388898.000,"cc",28310.537,6.00,6,0.100,258275.000,0.200,117542.000,0.300,9689.000,0.500,2567.000,1.000,825.000,5.000,0
"03/10/08","23:09:29",196385.000,"cc",28296.074,6.00,6,0.100,82751.000,0.200,102535.000,0.300,7795.000,0.500,2521.000,1.000,783.000,5.000,0
"03/10/08","23:09:35",439627.000,"cc",28352.025,6.00,6,0.100,289958.000,0.200,135030.000,0.300,11435.000,0.500,2468.000,1.000,736.000,5.000,0
"03/10/08","23:09:41",391466.000,"cc",28313.119,6.00,6,0.100,258522.000,0.200,116513.000,0.300,12629.000,0.500,2933.000,1.000,869.000,5.000,0
"03/10/08","23:09:47",357369.000,"cc",28357.637,6.00,6,0.100,191599.000,0.200,141804.000,0.300,20164.000,0.500,2988.000,1.000,814.000,5.000,0
"03/10/08","23:09:53",372619.000,"cc",28287.174,6.00,6,0.100,238384.000,0.200,120793.000,0.300,9891.000,0.500,2765.000,1.000,786.000,5.000,0
"03/10/08","23:09:59",174570.000,"cc",28272.065,6.00,6,0.100,59145.000,0.200,104043.000,0.300,7926.000,0.500,2591.000,1.000,865.000,5.000,0
"03/10/08","23:10:05",300685.000,"cc",28291.092,6.00,6,0.100,169546.000,0.200,117947.000,0.300,9847.000,0.500,2542.000,1.000,803.000,5.000,0
"03/10/08","23:10:11",441000.000,"cc",28295.303,6.00,6,0.100,297117.000,0.200,130486.000,0.300,9847.000,0.500,2718.000,1.000,832.000,5.000,0
"03/10/08","23:10:17",389498.000,"cc",28330.678,6.00,6,0.100,247147.000,0.200,130124.000,0.300,9075.000,0.500,2397.000,1.000,754.000,5.000,1.000
"03/10/08","23:10:23",238532.000,"cc",28361.797,6.00,6,0.100,123862.000,0.200,103467.000,0.300,7832.000,0.500,2622.000,1.000,749.000,5.000,0
"03/10/08","23:10:29",276901.000,"cc",28293.367,6.00,6,0.100,189182.000,0.200,78527.000,0.300,5846.000,0.500,2563.000,1.000,783.000,5.000,0
"03/10/08","23:10:35",275320.000,"cc",28255.838,6.00,6,0.100,180899.000,0.200,84062.000,0.300,6787.000,0.500,2752.000,1.000,820.000,5.000,0
"03/10/08","23:10:41",200821.000,"cc",28281.715,6.00,6,0.100,123143.000,0.200,68732.000,0.300,5467.000,0.500,2657.000,1.000,822.000,5.000,0
"03/10/08","23:10:47",350416.000,"cc",28369.834,6.00,6,0.100,262907.000,0.200,78073.000,0.300,6001.000,0.500,2587.000,1.000,848.000,5.000,0
"03/10/08","23:10:53",333370.000,"cc",28307.606,6.00,6,0.100,271180.000,0.200,54103.000,0.300,4786.000,0.500,2473.000,1.000,828.000,5.000,0
"03/10/08","23:10:59",328031.000,"cc",28244.676,6.00,6,0.100,190675.000,0.200,124500.000,0.300,9504.000,0.500,2568.000,1.000,784.000,5.000,0
"03/10/08","23:11:05",186422.000,"cc",28367.084,6.00,6,0.100,80910.000,0.200,95060.000,0.300,7192.000,0.500,2519.000,1.000,741.000,5.000,0
"03/10/08","23:11:11",184881.000,"cc",28296.879,6.00,6,0.100,85301.000,0.200,89956.000,0.300,6553.000,0.500,2360.000,1.000,711.000,5.000,0
"03/10/08","23:11:17",394226.000,"cc",28300.869,6.00,6,0.100,256826.000,0.200,124836.000,0.300,9728.000,0.500,2192.000,1.000,644.000,5.000,0
"03/10/08","23:11:23",386642.000,"cc",28258.074,6.00,6,0.100,300699.000,0.200,77178.000,0.300,5970.000,0.500,2135.000,1.000,660.000,5.000,0
"03/10/08","23:11:29",291637.000,"cc",28372.086,6.00,6,0.100,202155.000,0.200,80083.000,0.300,6271.000,0.500,2382.000,1.000,746.000,5.000,0
"03/10/08","23:11:34",203677.000,"cc",28322.758,6.00,6,0.100,84854.000,0.200,107405.000,0.300,8323.000,0.500,2323.000,1.000,772.000,5.000,0
"03/10/08","23:11:40",205541.000,"cc",28311.762,6.00,6,0.100,86326.000,0.200,108534.000,0.300,7869.000,0.500,2179.000,1.000,633.000,5.000,0
"03/10/08","23:11:46",366589.000,"cc",28359.775,6.00,6,0.100,299503.000,0.200,59750.000,0.300,4528.000,0.500,2117.000,1.000,691.000,5.000,0
"03/10/08","23:11:52",310547.000,"cc",28365.045,6.00,6,0.100,270926.000,0.200,33962.000,0.300,3063.000,0.500,1957.000,1.000,639.000,5.000,0
"03/10/08","23:11:58",256794.000,"cc",28275.504,6.00,6,0.100,225144.000,0.200,26339.000,0.300,2641.000,0.500,2018.000,1.000,652.000,5.000,0
"03/10/08","23:12:04",225168.000,"cc",28311.582,6.00,6,0.100,197433.000,0.200,22322.000,0.300,2645.000,0.500,2115.000,1.000,653.000,5.000,0
"03/10/08","23:12:10",124944.000,"cc",28300.152,6.00,6,0.100,108507.000,0.200,11616.000,0.300,2147.000,0.500,2012.000,1.000,662.000,5.000,0
"03/10/08","23:12:16",118535.000,"cc",28288.248,6.00,6,0.100,102666.000,0.200,11027.000,0.300,2077.000,0.500,2124.000,1.000,641.000,5.000,0
"03/10/08","23:12:22",124676.000,"cc",28311.717,6.00,6,0.100,108249.000,0.200,11376.000,0.300,2196.000,0.500,2186.000,1.000,669.000,5.000,0
"03/10/08","23:12:28",154943.000,"cc",28264.682,6.00,6,0.100,135525.000,0.200,14168.000,0.300,2417.000,0.500,2127.000,1.000,706.000,5.000,0
"03/10/08","23:12:34",195954.000,"cc",28373.211,6.00,6,0.100,171704.000,0.200,18553.000,0.300,2711.000,0.500,2177.000,1.000,809.000,5.000,0
"03/10/08","23:12:40",169597.000,"cc",28318.441,6.00,6,0.100,148591.000,0.200,15865.000,0.300,2382.000,0.500,2061.000,1.000,698.000,5.000,0
"03/10/08","23:12:46",190564.000,"cc",28329.717,6.00,6,0.100,166976.000,0.200,18090.000,0.300,2582.000,0.500,2203.000,1.000,713.000,5.000,0
"03/10/08","23:12:52",317004.000,"cc",28333.758,6.00,6,0.100,275304.000,0.200,35264.000,0.300,3479.000,0.500,2242.000,1.000,715.000,5.000,0
"03/10/08","23:12:58",186122.000,"cc",28279.834,6.00,6,0.100,163257.000,0.200,17625.000,0.300,2454.000,0.500,2102.000,1.000,684.000,5.000,0
"03/10/08","23:13:04",190641.000,"cc",28247.822,6.00,6,0.100,167673.000,0.200,17825.000,0.300,2418.000,0.500,2042.000,1.000,683.000,5.000,0
"03/10/08","23:13:10",149150.000,"cc",28286.816,6.00,6,0.100,130473.000,0.200,13563.000,0.300,2389.000,0.500,2058.000,1.000,667.000,5.000,0
"03/10/08","23:13:16",131469.000,"cc",28407.504,6.00,6,0.100,114439.000,0.200,11919.000,0.300,2248.000,0.500,2209.000,1.000,654.000,5.000,0
"03/10/08","23:13:22",110799.000,"cc",28304.332,6.00,6,0.100,95636.000,0.200,10187.000,0.300,2157.000,0.500,2140.000,1.000,679.000,5.000,0
"03/10/08","23:13:28",95535.000,"cc",28294.723,6.00,6,0.100,82078.000,0.200,8623.000,0.300,2131.000,0.500,2068.000,1.000,635.000,5.000,0
"03/10/08","23:13:34",111206.000,"cc",28362.119,6.00,6,0.100,96238.000,0.200,9989.000,0.300,2263.000,0.500,2062.000,1.000,654.000,5.000,0
"03/10/08","23:13:40",165147.000,"cc",28323.565,6.00,6,0.100,143714.000,0.200,16188.000,0.300,2448.000,0.500,2158.000,1.000,639.000,5.000,0
"03/10/08","23:13:46",142658.000,"cc",28234.061,6.00,6,0.100,124470.000,0.200,13107.000,0.300,2329.000,0.500,2144.000,1.000,608.000,5.000,0
"03/10/08","23:13:52",111844.000,"cc",28279.434,6.00,6,0.100,96348.000,0.200,10239.000,0.300,2251.000,0.500,2256.000,1.000,750.000,5.000,0
"03/10/08","23:13:58",59195.000,"cc",28318.984,6.00,6,0.100,48675.000,0.200,5562.000,0.300,2040.000,0.500,2166.000,1.000,752.000,5.000,0
"03/10/08","23:14:04",106453.000,"cc",28356.020,6.00,6,0.100,91821.000,0.200,9585.000,0.300,2220.000,0.500,2176.000,1.000,651.000,5.000,0
"03/10/08","23:14:10",134328.000,"cc",28373.522,6.00,6,0.100,116261.000,0.200,12705.000,0.300,2342.000,0.500,2280.000,1.000,740.000,5.000,0
"03/10/08","23:14:16",103795.000,"cc",28315.981,6.00,6,0.100,88791.000,0.200,9655.000,0.300,2361.000,0.500,2309.000,1.000,679.000,5.000,0
"03/10/08","23:14:22",152461.000,"cc",28287.856,6.00,6,0.100,132826.000,0.200,14274.000,0.300,2421.000,0.500,2238.000,1.000,702.000,5.000,0
"03/10/08","23:14:28",106858.000,"cc",28301.904,6.00,6,0.100,92028.000,0.200,9744.000,0.300,2214.000,0.500,2176.000,1.000,696.000,5.000,0
"03/10/08","23:14:34",93145.000,"cc",28303.613,6.00,6,0.100,79044.000,0.200,8633.000,0.300,2413.000,0.500,2389.000,1.000,666.000,5.000,0
"03/10/08","23:14:40",95014.000,"cc",28374.606,6.00,6,0.100,80528.000,0.200,8879.000,0.300,2390.000,0.500,2412.000,1.000,804.000,5.000,1.000
"03/10/08","23:14:46",70259.000,"cc",28344.381,6.00,6,0.100,58286.000,0.200,6712.000,0.300,2265.000,0.500,2330.000,1.000,666.000,5.000,0
"03/10/08","23:14:52",56261.000,"cc",28359.561,6.00,6,0.100,46463.000,0.200,5287.000,0.300,1874.000,0.500,2013.000,1.000,624.000,5.000,0
"03/10/08","23:14:58",63030.000,"cc",28280.816,6.00,6,0.100,52581.000,0.200,5858.000,0.300,1965.000,0.500,1961.000,1.000,665.000,5.000,0
"03/10/08","23:15:04",46725.000,"cc",28349.654,6.00,6,0.100,37978.000,0.200,4446.000,0.300,1744.000,0.500,1938.000,1.000,619.000,5.000,0
"03/10/08","23:15:10",56865.000,"cc",28283.809,6.00,6,0.100,46431.000,0.200,5546.000,0.300,2021.000,0.500,2185.000,1.000,682.000,5.000,0
"03/10/08","23:15:16",66974.000,"cc",28241.928,6.00,6,0.100,55940.000,0.200,6395.000,0.300,2007.000,0.500,2007.000,1.000,625.000,5.000,0
"03/10/08","23:15:22",51467.000,"cc",28334.135,6.00,6,0.100,41742.000,0.200,5020.000,0.300,1883.000,0.500,2091.000,1.000,731.000,5.000,0
"03/10/08","23:15:28",46725.000,"cc",28286.393,6.00,6,0.100,37256.000,0.200,4661.000,0.300,1985.000,0.500,2134.000,1.000,689.000,5.000,0
"03/10/08","23:15:34",44314.000,"cc",28390.326,6.00,6,0.100,35199.000,0.200,4392.000,0.300,1893.000,0.500,2164.000,1.000,666.000,5.000,0
"03/10/08","23:15:40",47801.000,"cc",28287.588,6.00,6,0.100,37263.000,0.200,5218.000,0.300,2286.000,0.500,2275.000,1.000,759.000,5.000,0
"03/10/08","23:15:46",45183.000,"cc",28396.400,6.00,6,0.100,35218.000,0.200,4668.000,0.300,2174.000,0.500,2337.000,1.000,786.000,5.000,0
"03/10/08","23:15:52",43680.000,"cc",28154.412,6.00,6,0.100,34508.000,0.200,4498.000,0.300,1883.000,0.500,2090.000,1.000,700.000,5.000,1.000
"03/10/08","23:15:58",46660.000,"cc",28277.436,6.00,6,0.100,35730.000,0.200,5190.000,0.300,2464.000,0.500,2484.000,1.000,792.000,5.000,0
"03/10/08","23:16:04",43350.000,"cc",28221.266,6.00,6,0.100,34250.000,0.200,4197.000,0.300,1915.000,0.500,2260.000,1.000,728.000,5.000,0